TimeCST,TemperatureF,Dew PointF,Humidity,Sea Level PressureIn,VisibilityMPH,Wind Direction,Wind SpeedMPH,Gust SpeedMPH,PrecipitationIn,Events,Conditions,WindDirDegrees,DateUTC
12:58 AM,55.0,51.1,86,30.29,10.0,SE,3.5,-,N/A,,Overcast,140,2013-01-25 06:58:00
1:58 AM,51.1,48.9,92,30.28,7.0,Calm,Calm,-,N/A,,Clear,0,2013-01-25 07:58:00
2:58 AM,51.1,48.9,92,30.28,5.0,Calm,Calm,-,N/A,,Overcast,0,2013-01-25 08:58:00
3:43 AM,53.6,51.8,94,30.29,7.0,Calm,Calm,-,N/A,,Overcast,0,2013-01-25 09:43:00
3:53 AM,53.6,51.8,94,30.29,6.0,ENE,3.5,-,N/A,,Overcast,70,2013-01-25 09:53:00
3:58 AM,54.0,52.0,93,30.28,6.0,East,3.5,-,N/A,,Overcast,80,2013-01-25 09:58:00
4:58 AM,54.0,48.9,83,30.28,8.0,Variable,3.5,-,N/A,,Overcast,0,2013-01-25 10:58:00
5:58 AM,53.1,46.9,80,30.30,8.0,Calm,Calm,-,N/A,,Overcast,0,2013-01-25 11:58:00
6:58 AM,52.0,46.0,80,30.31,7.0,Calm,Calm,-,N/A,,Overcast,0,2013-01-25 12:58:00
7:58 AM,53.1,46.0,77,30.32,8.0,East,4.6,-,N/A,,Overcast,100,2013-01-25 13:58:00
8:58 AM,57.0,48.0,72,30.32,8.0,SE,4.6,-,N/A,,Clear,140,2013-01-25 14:58:00
9:58 AM,64.0,51.1,63,30.30,10.0,South,8.1,-,N/A,,Clear,190,2013-01-25 15:58:00
10:58 AM,66.9,53.1,61,30.26,10.0,SSW,15.0,20.7,N/A,,Clear,210,2013-01-25 16:58:00
11:58 AM,70.0,53.1,55,30.23,10.0,WSW,9.2,18.4,N/A,,Mostly Cloudy,240,2013-01-25 17:58:00
12:58 PM,70.0,52.0,53,30.21,10.0,SSW,16.1,-,N/A,,Mostly Cloudy,200,2013-01-25 18:58:00
1:58 PM,68.0,53.1,59,30.22,10.0,SSW,11.5,-,N/A,,Overcast,210,2013-01-25 19:58:00
2:58 PM,69.1,53.1,57,30.20,10.0,SSW,11.5,19.6,N/A,,Mostly Cloudy,210,2013-01-25 20:58:00
3:58 PM,68.0,52.0,56,30.19,10.0,SW,9.2,18.4,N/A,,Partly Cloudy,220,2013-01-25 21:58:00
4:58 PM,64.9,52.0,63,30.17,10.0,SW,8.1,-,N/A,,Clear,220,2013-01-25 22:58:00
5:58 PM,63.0,52.0,67,30.19,10.0,SW,6.9,-,N/A,,Clear,220,2013-01-25 23:58:00
6:58 PM,60.1,52.0,75,30.20,10.0,Calm,Calm,-,N/A,,Clear,0,2013-01-26 00:58:00
7:58 PM,55.9,52.0,87,30.20,10.0,Calm,Calm,-,N/A,,Clear,0,2013-01-26 01:58:00
8:58 PM,55.9,51.1,84,30.21,10.0,Calm,Calm,-,N/A,,Clear,0,2013-01-26 02:58:00
9:58 PM,52.0,48.9,89,30.22,9.0,SSW,3.5,-,N/A,,Clear,210,2013-01-26 03:58:00
10:58 PM,-9999,-9999,N/A,-9999,0.7,SW,6.9,-,N/A,,Unknown,220,2013-01-26 04:58:00
11:58 PM,57.9,54.0,87,30.19,10.0,SW,8.1,-,N/A,,Clear,220,2013-01-26 05:58:00